Weather History for KBIL - April, 2014

Change the Weather History Date:

Saturday, April 19, 2014

  Actual Average Record
Temperature  
Mean Temperature 51 °F 47 °F  
Max Temperature 66 °F 59 °F 87 °F (1962)
Min Temperature 35 °F 36 °F 11 °F (1951)
Degree Days  
Heating Degree Days 14 18  
Month to date heating degree days 385 390  
Since 1 July heating degree days 6625 6200  
Cooling Degree Days 0 0  
Month to date cooling degree days 0 0  
Year to date cooling degree days 0 0  
Moisture  
Dew Point 19 °F    
Average Humidity 30    
Maximum Humidity 44    
Minimum Humidity 16    
Precipitation  
Precipitation 0.00 in 0.06 in 1.04 in (2007)
Month to date precipitation 0.26 1.00  
Year to date precipitation 4.66 3.02  
Snow  
Snow 0.00 in 0.20 in 5.30 in (2005)
Month to date snowfall 0.6 5.9  
Since 1 July snowfall 101.4 50.6  
Snow Depth 0.00 in    
Sea Level Pressure  
Sea Level Pressure 29.92 in    
Wind  
Wind Speed 6 mph (SSW)    
Max Wind Speed 14 mph    
Max Gust Speed 20 mph    
Visibility 10 miles    
Events      
T = Trace of Precipitation, MM = Missing Value Source: NWS Daily Summary

Daily Weather History Graph

Daily Weather History Graph

Search for Another Location

Airport or City:

Trip Planner

Search our weather history database for the weather conditions in past years. The results will help you decide how hot, cold, wet, or windy it might be!

Date:

Astronomy

Apr. 19, 2014 Rise Set
Actual Time 6:21 AM MDT 8:06 PM MDT
Civil Twilight 5:49 AM MDT 8:37 PM MDT
Nautical Twilight 5:11 AM MDT 9:16 PM MDT
Astronomical Twilight 4:29 AM MDT 9:58 PM MDT
Moon 12:00 AM MDT (4/19) 9:35 AM MDT (4/19)
Length of Visible Light 14h 48m
Length of Day
13h 45m
Waning Gibbous, 78% of the Moon is Illuminated
Apr 19
Waning Gibbous
Apr 22
Last Quarter
Apr 29
New
May 6
First Quarter
May 14
Full

Hourly Weather History & Observations

Time (MDT) Temp. Windchill Dew Point Humidity Pressure Visibility Wind Dir Wind Speed Gust Speed Precip Events Conditions
12:53 AM 43.0 °F 37.7 °F 12.9 °F 30% 29.89 in 10.0 mi WSW 9.2 mph - N/A   Partly Cloudy
1:53 AM 41.0 °F 36.4 °F 12.9 °F 32% 29.89 in 10.0 mi West 6.9 mph - N/A   Scattered Clouds
2:53 AM 39.2 °F 35.9 °F 15.8 °F 39% 29.90 in 10.0 mi NNW 4.6 mph - N/A   Scattered Clouds
3:53 AM 37.0 °F 34.5 °F 16.0 °F 42% 29.93 in 10.0 mi East 3.5 mph - N/A   Partly Cloudy
4:53 AM 41.0 °F 37.1 °F 12.9 °F 32% 29.94 in 10.0 mi WNW 5.8 mph - N/A   Partly Cloudy
5:53 AM 39.0 °F 35.7 °F 12.9 °F 34% 29.99 in 10.0 mi North 4.6 mph - N/A   Partly Cloudy
6:53 AM 36.0 °F 29.6 °F 16.0 °F 44% 30.02 in 10.0 mi West 8.1 mph - N/A   Partly Cloudy
7:53 AM 43.0 °F 38.8 °F 16.0 °F 34% 30.02 in 10.0 mi West 6.9 mph - N/A   Scattered Clouds
8:53 AM 43.0 °F 40.3 °F 18.0 °F 37% 30.03 in 10.0 mi SSW 4.6 mph - N/A   Partly Cloudy
9:53 AM 46.9 °F - 18.0 °F 32% 30.02 in 10.0 mi South 5.8 mph - N/A   Partly Cloudy
10:53 AM 51.1 °F - 14.0 °F 23% 29.99 in 10.0 mi Calm Calm - N/A   Partly Cloudy
11:53 AM 55.0 °F - 18.0 °F 23% 29.98 in 10.0 mi South 6.9 mph - N/A   Partly Cloudy
12:53 PM 57.0 °F - 16.0 °F 20% 29.95 in 10.0 mi Variable 3.5 mph - N/A   Partly Cloudy
1:53 PM 59.0 °F - 17.1 °F 20% 29.94 in 10.0 mi SSW 6.9 mph - N/A   Scattered Clouds
2:53 PM 62.1 °F - 17.1 °F 18% 29.92 in 10.0 mi Variable 5.8 mph - N/A   Partly Cloudy
3:53 PM 64.0 °F - 18.0 °F 17% 29.90 in 10.0 mi Variable 6.9 mph - N/A   Partly Cloudy
4:53 PM 66.0 °F - 19.9 °F 17% 29.87 in 10.0 mi SSW 5.8 mph - N/A   Partly Cloudy
5:53 PM 64.9 °F - 24.1 °F 21% 29.87 in 10.0 mi ESE 9.2 mph - N/A   Partly Cloudy
6:53 PM 63.0 °F - 24.1 °F 23% 29.87 in 10.0 mi SE 12.7 mph - N/A   Scattered Clouds
7:53 PM 61.0 °F - 25.0 °F 25% 29.86 in 10.0 mi SE 9.2 mph - N/A   Mostly Cloudy
8:53 PM 59.0 °F - 25.0 °F 27% 29.86 in 10.0 mi SE 8.1 mph - N/A   Mostly Cloudy
9:53 PM 55.9 °F - 26.1 °F 32% 29.86 in 10.0 mi SSE 6.9 mph - N/A   Partly Cloudy
10:53 PM 55.0 °F - 26.1 °F 33% 29.85 in 10.0 mi SSE 9.2 mph - N/A   Clear
11:53 PM 52.0 °F - 28.0 °F 40% 29.83 in 10.0 mi South 6.9 mph - N/A   Clear